Powrót do katalogu

STARLINK-32426

AktywnyŁącznośćVLEO
NORAD 61681·PAYLOAD·🇺🇸 United States

Wystrzelony Oct 26, 2024 z Cape Canaveral Space Force Station

Loading…

Następne Przeloty (najbliższe 24 godziny)

TLE

ŚwieżeSource: CelesTrak SupGP

Epoka: Sep 15, 2026, 02:10 UTC

1 61681C 24193W   26258.09076389  .00025713  00000+0  75956-3 0  2586
2 61681  53.1577 290.9228 0001008  93.5836 115.6812 15.34384219    12

Śledź STARLINK-32426 w czasie rzeczywistym z AllMySat

Download on the App Store